Regional Weather Roundup
Issued by NWS

Home | Current Version | Previous Version | Text Only | Print | Product List | Glossary Off
Versions: 1 2 3 4 5 6 7 8 9 10 11 12 13 14 15 16 17 18 19 20 21 22 23 24 25 26 27 28 29 30 31 32 33 34 35 36 37 38 39 40 41 42 43 44 45 46 47 48 49 50

931
ASUS43 KLMK 161502
RWRKY
KENTUCKY REGIONAL WEATHER ROUNDUP
NATIONAL WEATHER SERVICE LOUISVILLE KY
1000 AM EST TUE JAN 16 2018

NOTE "FAIR" INDICATES FEW OR NO CLOUDS BELOW 12,000 FEET
WITH NO SIGNIFICANT WEATHER AND/OR OBSTRUCTIONS TO VISIBILITY.

KYZ001>023-026-027-061>063-070>075-161600-
WESTERN AND SOUTH CENTRAL KENTUCKY

CITY           SKY/WX    TMP DP  RH WIND       PRES   REMARKS
PADUCAH        FAIR       6  -6  57 NW9       30.68R WCI  -8
HENDERSON      FAIR       8   0  69 NW8       30.67R WCI  -4
OWENSBORO      FAIR       4  -3  73 NW10      30.66R WCI -11
HOPKINSVILLE   NOT AVBL
BOWLING GREEN  LGT SNOW  10   4  76 NW7       30.62R VSB 3/4 WCI  -1
GLASGOW        NOT AVBL
$$

KYZ024-025-028>034-038-045-046-053-161600-
NORTH CENTRAL KENTUCKY

CITY           SKY/WX    TMP DP  RH WIND       PRES   REMARKS
LOUISVILLE/SDF CLOUDY     8   0  69 W14       30.60R WCI  -8
LOUISVILLE/LOU PTSUNNY    8   0  69 W8        30.60R WCI  -4
FORT KNOX      PTSUNNY    6  -2  69 W12       30.56R WCI  -9
$$

KYZ035>037-039>044-047>052-055>060-089>105-161600-
NORTHEAST KENTUCKY

CITY           SKY/WX    TMP DP  RH WIND       PRES   REMARKS
LEXINGTON      LGT SNOW  11   6  81 W8        30.52R VSB 3/4 WCI  -1
COVINGTON      CLOUDY     7   1  76 W13       30.51R WCI  -9
FRANKFORT      LGT SNOW  10   3  73 W7        30.53R WCI  -1
$$

KYZ054-064>069-076>088-106>120-161600-
SOUTHEAST KENTUCKY

CITY           SKY/WX    TMP DP  RH WIND       PRES   REMARKS
JACKSON        LGT SNOW  19  14  81 NW6       30.43R WCI  11
LONDON         CLOUDY    17  13  84 N5        30.47R WCI  10
SOMERSET       NOT AVBL
MIDDLESBORO    LGT SNOW  29  25  84 NW3       30.43R
MONTICELLO     LGT SNOW  16  12  84 NW7       30.53R FOG     WCI   6
$$





USA.gov is the U.S. government's official web portal to all federal, state and local government web resources and services.